Location: Newark
(52.4787°S, 179.0532°W)
Time: 05:51:10
(UTC+00:00)

Transit 2A Rocket - Pass Details

Date: 29 November 2019
Orbit: 594 x 909 km, 66.7° (Epoch: 05 December)

Event Time Altitude Azimuth Distance (km) Brightness Sun altitude
Rises 03:21:55 0° 220° (SW) 3,574 8.7 38.3°
Reaches altitude 10° 03:24:29 10° 221° (SW) 2,623 8.2 37.9°
Maximum altitude 03:30:39 82° 306° (NW) 911 6.2 37.0°
Drops below altitude 10° 03:36:29 10° 33° (NNE) 2,483 7.6 36.1°
Sets 03:38:52 0° 33° (NNE) 3,371 8.1 35.8°
